Home   Weather   Karmiel   Past weeks

Flag for Israel Past Weather in Karmiel, Israel — Yesterday and Last 2 Weeks

Now
54 °F

Passing clouds.


Feels Like: 53 °F
Forecast: 38 / 58 °F
Wind: 5 mph from East

Location: Dov Airport

Current Time: Jan 21, 2017 at 6:54:53 am

Latest Report: Jan 21, 2017 at 6:00 am


Visibility: N/A

Pressure: 30.09 "Hg

Humidity: 82%

Dew Point: 48 °F

Location of KarmielLocation

Past Weather in Karmiel — Graph

°F

Karmiel Temperature Yesterday

Maximum temperature yesterday: 64 °F (at 10:50 am)
Minimum temperature yesterday: 52 °F (at 5:30 am)
Average temperature yesterday: 59 °F

High & Low Weather Summary for the Past Weeks

 TemperatureHumidityPressure
High70 °F (Jan 6, 2:50 pm)94% (Jan 15, 5:30 am)30.24 "Hg (Jan 15, 5:30 am)
Low46 °F (Jan 10, 6:50 am)28% (Jan 10, 12:50 pm)29.89 "Hg (Jan 14, 11:50 pm)
Average59 °F62%30.06 "Hg
* Reported Jan 5 10:50 pm — Jan 20 10:50 pm, Karmiel, Weather by CustomWeather, © 2017

Note: Actual official high and low records may vary slightly from our data, if they occured in-between our weather recording intervals... More about our weather records

Advertising

Karmiel Weather History for the Previous 24 Hours

Scroll right to see more
 ConditionsComfort  
Time TempWeatherWind HumidityBarometerVisibility
10:50 pm
Fri, Jan 20
57 °FPassing clouds.3 mph72%30.15 "HgN/A
9:50 pm57 °FPassing clouds.5 mph72%30.15 "HgN/A
8:50 pm57 °FPassing clouds.5 mph72%30.15 "HgN/A
7:50 pm61 °FPassing clouds.2 mph63%30.12 "HgN/A
6:50 pm61 °FClear.10 mph63%30.12 "Hg10 mi
5:50 pm61 °FPassing clouds.8 mph63%30.12 "HgN/A
4:50 pm63 °FPassing clouds.8 mph59%30.12 "HgN/A
3:50 pm63 °FSunny.7 mph59%30.12 "Hg10 mi
2:50 pm64 °FSunny.8 mph60%30.12 "Hg10 mi
1:50 pm64 °FSunny.7 mph56%30.12 "Hg10 mi
12:50 pm64 °FSunny.7 mph56%30.15 "Hg10 mi
11:50 am63 °FPassing clouds.7 mph56%30.18 "HgN/A
10:50 am64 °FPassing clouds.5 mph56%30.21 "HgN/A
9:50 am63 °FSunny.5 mph59%30.21 "Hg10 mi
8:50 am57 °FPassing clouds.7 mph72%30.21 "HgN/A
7:50 am54 °FPassing clouds.7 mph82%30.21 "Hg6 mi
6:50 am52 °FPassing clouds.6 mph82%30.21 "Hg4 mi
Weather by CustomWeather, © 2017

See weather overviewHow to use our weather pages